{"data":{"norad_id":65931,"epoch":"2026-05-25T01:46:31.330272Z","epoch_age_seconds":78956,"freshness":"FRESH","line1":"1 65931U 25225X   26145.07397373  .00014631  00000+0  50508-3 0  9992","line2":"2 65931  53.1592 170.8233 0001248  91.7741 268.3403 15.30204856 36109","mean_motion":15.30204856,"eccentricity":0.0001248,"inclination_deg":53.1592,"raan_deg":170.8233,"arg_perigee_deg":91.7741,"mean_anomaly_deg":268.3403,"bstar":0.00050508,"rev_number":3610,"period_min":94.105047069593,"perigee_km":474.34527378819,"apogee_km":476.05586684574,"semimajor_km":6853.337570317,"source":"CELESTRAK","updated_at":"2026-05-25T13:38:20.990717Z"}}